Flag for U.S.A. Weather past 2 weeks in Overland Park, Kansas, U.S.A.

Now
41 °F

Fog.


Feels Like: 35 °F
Forecast: 39 / 47 °F
Wind: 10 mph from South

Location: Johnson County Executive Airport

Current Time: Dec 22, 2014 at 6:14:04 AM

Latest Report: Dec 22, 2014 at 4:53 AM


Visibility: 4 mi

Pressure: 29.63 "Hg

Humidity: 100%

Dew point: 41 °F

Location of Overland ParkLocation

Historic Weather in Overland Park — Graph

°F

Overland Park temperature yesterday

Maximum temperature yesterday: 45 °F (at 1:53 PM)
Minimum temperature yesterday: 34 °F (at 12:53 AM)
Average temperature yesterday: 40 °F

Past Weeks' High & Low Weather Summary

 TemperatureHumidityPressure
High62 °F (Dec 14, 1:53 PM)100% (Dec 7, 4:03 AM)30.48 "Hg (Dec 7, 4:03 AM)
Low25 °F (Dec 10, 3:53 AM)49% (Dec 8, 3:53 PM)29.55 "Hg (Dec 15, 6:53 AM)
Average38 °F89%30.16 "Hg
* Reported Dec 7 4:03 AM — Dec 22 4:53 AM, Overland Park, Weather by CustomWeather, © 2014

Note: Actual official high and low records may vary slightly from our data, if they occured in-between our weather recording intervals... More about our weather records

Advertising

Overland Park weather history for previous 24 hours

 ConditionsComfort  
Time TempWeatherWind HumidityBarometerVisibility
4:53 AM
Dec 22
41 °FFog.10 mph100%29.63 "Hg4 mi
3:53 AM41 °FFog.10 mph100%29.65 "Hg2 mi
2:53 AM42 °FFog.12 mph92%29.67 "Hg4 mi
1:53 AM42 °FOvercast.12 mph85%29.68 "Hg10 mi
12:53 AM42 °FOvercast.12 mph85%29.71 "Hg10 mi
11:53 PM
Dec 21
42 °FOvercast.12 mph85%29.74 "Hg10 mi
10:53 PM42 °FOvercast.12 mph85%29.76 "Hg9 mi
9:53 PM43 °FOvercast.14 mph86%29.78 "Hg8 mi
8:53 PM43 °FMostly cloudy.14 mph89%29.77 "Hg7 mi
7:53 PM43 °FMostly cloudy.17 mph93%29.79 "Hg7 mi
6:53 PM43 °FFog.13 mph97%29.81 "Hg6 mi
5:53 PM43 °FFog.14 mph97%29.82 "Hg6 mi
4:53 PM43 °FFog.13 mph93%29.84 "Hg6 mi
3:53 PM44 °FFog.13 mph89%29.84 "Hg4 mi
2:53 PM45 °FMostly cloudy.14 mph82%29.85 "Hg10 mi
1:53 PM45 °FMore clouds than sun.10 mph82%29.87 "Hg10 mi
12:53 PM43 °FMore clouds than sun.16 mph89%29.90 "Hg8 mi
11:53 AM42 °FOvercast.13 mph89%29.96 "Hg7 mi
10:53 AM41 °FFog.13 mph93%30.00 "Hg6 mi
10:03 AM40 °FFog.12 mph93%30.00 "Hg5 mi
9:53 AM40 °FFog.10 mph93%30.02 "Hg6 mi
8:53 AM39 °FFog.10 mph100%30.03 "Hg4 mi
7:53 AM38 °FFog.9 mph100%30.05 "Hg3 mi
6:53 AM37 °FFog.7 mph100%30.06 "Hg4 mi
Weather by CustomWeather, © 2014

See weather overviewHow to use our weather pages